Kosmos-1027

operational
NORAD ID: 10991 Int'l Des: 1978-074 Owner: VMF Country: SU
LEOCIRCULARPOLAR

Über Kosmos-1027

Beschreibung wird geladen...

Live-Position

3D-Globus wird geladen...

Nächste Überflüge

Höhenverlauf

Altitude vs Time

uPlot chart will show altitude changes over time

Zweizeiliger Elementsatz

1 10991U 78074A 26062.65367405 .00000082 00000-0 68330-4 0 9992
2 10991 82.9324 95.7165 0025798 325.5742 158.4467 13.76687058390583
Epoch: 3. März 2026 • Age: 25 hours

Aktueller Status

Höhe 994.6 km
Geschwindigkeit 7.35 km/s
Subsatellitenpunkt -28.97°S, 105.21°E
Startdatum 27. Juli 1978
Alter 47.6 years
Typ other

Technische Details

Klassifizierung Payload
Masse 800.00 kg
Trockenmasse 800.00 kg
Gesamtmasse 800.00 kg
Länge 5.00 m
Durchmesser 2.10 m
Spannweite 17.00 m
Form Cyl + Ant
Hersteller NPOPM
Bus-Typ KAUR-1 11F617
Phasenstatus In Orbit
Besitzer/Staat VMF/SU

Große Konstellationen

Loading constellations...